Regional Weather Roundup
Issued by NWS

Home | Current Version | Previous Version | Text Only | Print | Product List | Glossary Off
Versions: 1 2 3 4 5 6 7 8 9 10 11 12 13 14 15 16 17 18 19 20 21 22 23 24 25 26 27 28 29 30 31 32 33 34 35 36 37 38 39 40 41 42 43 44 45 46 47 48 49 50

623
ASUS45 KBOU 190107
RWRCO

WEATHER ROUNDUP FOR COLORADO
NATIONAL WEATHER SERVICE DENVER/BOULDER CO
700 PM MDT FRI AUG 18 2017

NOTE: "FAIR" INDICATES FEW OR NO CLOUDS BELOW 12000 FEET WITH NO
SIGNIFICANT WEATHER AND/OR OBSTRUCTIONS TO VISIBILITY.

COZ001>005-013-030-031-190200-
...NORTHWEST COLORADO...

CITY           SKY/WX    TMP DP  RH WIND       PRES   REMARKS
CRAIG          FAIR      84  26  12 W12       30.18F
HAYDEN         FAIR      82  29  14 W10       30.22F
MEEKER         FAIR      85  25  11 W10       30.20S
RABBIT EARS PA FAIR      61  32  33 NW6G18    30.55S
STEAMBOAT SPGS FAIR      79  32  17 W7        30.24S
WALDEN         FAIR      72  27  18 W5        30.36F
$$

COZ006>008-011-190200-
...WEST CENTRAL VALLEYS...

CITY           SKY/WX    TMP DP  RH WIND       PRES   REMARKS
GRAND JUNCTION FAIR      91  28  10 NW13      30.07F
MONTROSE       FAIR      83  39  21 NW6       30.16F
EAGLE          FAIR      84  30  14 W13       30.23S
RIFLE          FAIR      89  17   7 W12       30.12F
DELTA          FAIR      92  27   9 W8        30.11F
NUCLA          FAIR      88  27  11 NW7       30.20F
$$

COZ017>023-064>068-190200-
...SOUTHWEST COLORADO...

CITY           SKY/WX    TMP DP  RH WIND       PRES   REMARKS
DURANGO        FAIR      83  25  12 W8        30.23F
CORTEZ         FAIR      86  28  12 W6        30.18S
PAGOSA SPRINGS CLOUDY    81  19  10 S3        30.32F
TELLURIDE      FAIR      71  31  22 SE5       30.46F
WOLF CREEK PAS FAIR      55  27  33 SW9G16    30.72S
$$

COZ009-010-012-014-032>034-037-058>063-190200-
...CENTRAL COLORADO...

CITY           SKY/WX    TMP DP  RH WIND       PRES   REMARKS
ASPEN          FAIR      76  34  21 N10G16    30.32S
BUENA VISTA    MOCLDY    78  28  15 SW13      30.32S
COPPER MTN     FAIR      59  27  29 NW13      30.68S
BERTHOUD PASS  FAIR      52  46  82 W16       30.71S
COTTONWOOD PAS FAIR      72  21  15 SW15G22   30.49S
GUNNISON       FAIR      75  41  29 W8        30.32S
KREMMLING      FAIR      82  30  15 W5        30.29S
LEADVILLE      FAIR      66  29  24 NW9       30.48S
MONARCH PASS   FAIR      61  28  29 W18G26    30.77S
SALIDA         FAIR      82  31  15 W8        30.35S
SUNLIGHT       FAIR      59  30  33 SW7       30.60F
WILKERSON PASS FAIR      61  28  29 SW6       30.64S
$$

COZ069>075-190200-
...SAN LUIS VALLEY/SANGRE DE CRISTO MOUNTAINS...

CITY           SKY/WX    TMP DP  RH WIND       PRES   REMARKS
ALAMOSA        FAIR      78  33  19 SE6       30.29F
DEL NORTE      FAIR      71  40  31 SE7       30.34S
LA VETA PASS   NOT AVBL
SAGUACHE       FAIR      72  37  28 SW5       30.34R
$$

COZ035-036-038>040-190200-
...NORTHERN COLORADO FRONT RANGE...

CITY           SKY/WX    TMP DP  RH WIND       PRES   REMARKS
DENVER INTL AP FAIR      83  40  21 E12       30.13S
DMNS CITY PARK   N/A     84  42  23 E5G10     30.12S
AURORA         PTCLDY    82  46  28 E8        30.16R
FRONT RANGE AP FAIR      82  43  24 E10       30.15S
ERIE MUNI ARPT FAIR      85  34  16 NE8       30.16S
BOULDER MUN AP FAIR      81  43  26 NW3       30.13S
CENTENNIAL     FAIR      82  46  28 SE9       30.17R
BROOMFIELD     PTCLDY    84  41  21 E7        30.16S
FORT COLLINS   FAIR      82  46  28 SE6       30.12S
LONGMONT       FAIR      82  45  27 N3        30.13S
$$

COZ041-046-047-076>085-087-088-190200-
...PIKES PEAK/PALMER DIVIDE AND SOUTHERN FOOTHILLS...

CITY           SKY/WX    TMP DP  RH WIND       PRES   REMARKS
COLO. SPRINGS  FAIR      80  44  27 SE9       30.21S
A. F. ACADEMY  FAIR      75  40  28 SE8       30.23R
SCHRIEVER AFB  FAIR      76  44  31 SE8       30.22S
CHEYENNE MTN   FAIR      74  39  28 S8        30.22S
ELLICOTT       NOT AVBL
FALCON         FAIR      75  43  32 SE5       30.28S
FORT CARSON    FAIR      78  46  31 SE9       30.17S
LIMON          FAIR      77  51  40 SE8       30.16S
MONUMENT HILL  FAIR      70  46  43 SE8       30.29S
CANON CITY     CLEAR     86  46  25 E12       30.12S
WALSENBURG     NOT AVBL
TRINIDAD       FAIR      82  40  22 SE8       30.17S
$$

COZ042>045-048>051-090-091-190200-
...NORTHEAST COLORADO...

CITY           SKY/WX    TMP DP  RH WIND       PRES   REMARKS
GREELEY ARPT   FAIR      82  54  37 SE3       30.10S
AKRON          FAIR      79  46  31 SE14      30.11S
BURLINGTON     FAIR      78  59  51 E6        30.11S
WRAY           NOT AVBL
YUMA           FAIR      75  41  29 SE6       30.09S
STERLING       FAIR      82  50  32 CALM      30.04S
HOLYOKE        FAIR      79  59  50 SE5       30.06F
FORT MORGAN    FAIR      83  41  22 E5        30.09F
$$

COZ086-089-092>099-190200-
...SOUTHEAST COLORADO...

CITY           SKY/WX    TMP DP  RH WIND       PRES   REMARKS
PUEBLO         FAIR      87  43  21 SE10      30.08R
LA JUNTA       FAIR      86  51  29 E7        30.06F
LAMAR          FAIR      85  57  38 E9        30.03S
SPRINGFIELD      N/A     80  59  48 E6        30.09S
$$




USA.gov is the U.S. government's official web portal to all federal, state and local government web resources and services.